Find Starlink 11318

NORAD ID: 61252 Int'l Des: 2024-175 Owner: SPXS Country: US Constellation: starlink operational
LEOCIRCULAR

实时位置

正在加载3D地球...

关于 Starlink 11318

正在加载描述...

即将过境

Passes for default location (London). Set your location on the main map for personalized predictions.

高度历史

Loading altitude history...

两行轨道根数

1 61252U 24175K 26126.31409809 -.00000035 00000-0 45795-5 0 9990
2 61252 53.1595 132.4429 0001886 68.3424 291.7795 15.69696627 93583
Epoch: May 6, 2026 • Age: 4 hours

当前状态

高度 364.6 km
速度 7.70 km/s
星下点 50.13°N, 141.41°W
发射日期 Sep 25, 2024
运行时间 1.6 years
类型 internet

技术详情

分类 Payload
质量 960.00 kg
干质量 910.00 kg
总质量 960.00 kg
长度 0.30 m
直径 4.10 m
跨度 29.00 m
形状 Box + pan
制造商 SPXS
平台类型 Starlink V2MD
阶段状态 In Orbit
所有者/国家 SPXS/US

Most Searched